Location: Lalanga
(4.5882°N, 32.9072°E)
Time: 18:38:54
(UTC+00:00)

Meteor 2-10 Rocket - Pass Details

Date: 24 January 2020
Orbit: 733 x 885 km, 81.2° (Epoch: 26 February)

Event Time Altitude Azimuth Distance (km) Brightness Sun altitude
Rises 16:18:04 0° 5° (N) 3,189 6.5 -5.7°
Reaches altitude 10° 16:20:30 10° 12° (NNE) 2,251 5.6 -6.2°
Maximum altitude 16:25:18 46° 84° (E) 986 3.7 -7.4°
Drops below altitude 10° 16:30:04 10° 157° (SSE) 2,231 5.9 -8.5°
Sets 16:32:28 0° 163° (SSE) 3,156 6.7 -9.1°
